Montgomery, NY

1:50 PM EDT on September 24, 2017 (GMT -0400)
Orange County

Weather History for KMGJ - November, 2011

Change the Weather History Date:

Tuesday, November 22, 2011

  Actual Average (KSWF) Record (KSWF)
Temperature  
Mean Temperature 34 °F -  
Max Temperature 39 °F 46 °F 64 °F (2007)
Min Temperature 30 °F 30 °F 11 °F (1984)
Degree Days  
Heating Degree Days 32    
Moisture  
Dew Point 33 °F    
Average Humidity 90    
Maximum Humidity 100    
Minimum Humidity 70    
Precipitation  
Precipitation 0.70 in - - ()
Sea Level Pressure  
Sea Level Pressure 30.28 in    
Wind  
Wind Speed 5 mph (NNE)    
Max Wind Speed 13 mph    
Max Gust Speed -    
Visibility 5 miles    
Events Rain    
Averages and records for this station are not official NWS values.
T = Trace of Precipitation, MM = Missing Value Source: NWS Daily Summary

Daily Weather History Graph

Daily Weather History Graph

Search for Another Location

Airport or City:

Trip Planner

Search our weather history database for the weather conditions in past years. The results will help you decide how hot, cold, wet, or windy it might be!

Date:

Astronomy

Nov. 22, 2011 Rise Set
Actual Time 6:53 AM EST 4:32 PM EST
Civil Twilight 6:23 AM EST 5:02 PM EST
Nautical Twilight 5:49 AM EST 5:36 PM EST
Astronomical Twilight 5:16 AM EST 6:09 PM EST
Moon 3:39 AM EST (11/22) 2:31 PM EST (11/22)
Length of Visible Light 10h 38m
Length of Day
9h 38m
Waning Crescent, 9% of the Moon is Illuminated
Nov 22
Waning Crescent
Nov 25
New
Dec 2
First Quarter
Dec 10
Full
Dec 17
Last Quarter

Hourly Weather History & Observations

Time (EST) Temp. Windchill Dew Point Humidity Pressure Visibility Wind Dir Wind Speed Gust Speed Precip Events Conditions
12:54 AM 30.9 °F - 27.0 °F 85% 30.33 in 10.0 mi Calm Calm - N/A   Partly Cloudy
1:54 AM 34.0 °F - 27.0 °F 75% 30.34 in 10.0 mi Calm Calm - N/A   Overcast
2:33 AM 33.8 °F 30.8 °F 28.4 °F 81% 30.33 in 10.0 mi North 3.5 mph - N/A   Overcast
2:54 AM 35.1 °F - 27.0 °F 72% 30.34 in 10.0 mi Calm Calm - N/A   Overcast
3:54 AM 35.1 °F 32.2 °F 27.0 °F 72% 30.36 in 10.0 mi NNE 3.5 mph - N/A   Overcast
4:54 AM 36.0 °F 33.3 °F 27.0 °F 70% 30.37 in 10.0 mi NNE 3.5 mph - N/A   Overcast
5:54 AM 35.1 °F 29.3 °F 27.0 °F 72% 30.38 in 10.0 mi North 6.9 mph - N/A   Overcast
6:42 AM 35.6 °F 30.7 °F 28.4 °F 75% 30.36 in 10.0 mi NE 5.8 mph - N/A   Overcast
6:54 AM 35.1 °F 32.2 °F 28.0 °F 76% 30.38 in 10.0 mi NE 3.5 mph - N/A   Overcast
7:54 AM 34.0 °F 26.0 °F 28.9 °F 82% 30.40 in 5.0 mi NE 10.4 mph - N/A   Haze
8:30 AM 33.8 °F 28.6 °F 32.0 °F 93% 30.39 in 2.5 mi NNE 5.8 mph - N/A   Overcast
8:37 AM 33.8 °F 29.6 °F 32.0 °F 93% 30.39 in 1.8 mi NE 4.6 mph - N/A   Overcast
8:54 AM 34.0 °F 28.8 °F 32.0 °F 92% 30.40 in 1.8 mi NNE 5.8 mph - N/A   Overcast
9:54 AM 33.1 °F 26.9 °F 32.0 °F 96% 30.40 in 1.8 mi NNE 6.9 mph - 0.00 in   Overcast
10:10 AM 33.8 °F 28.6 °F 32.0 °F 93% 30.38 in 2.0 mi NNE 5.8 mph - N/A   Overcast
10:46 AM 33.8 °F 27.0 °F 33.8 °F 100% 30.38 in 2.0 mi NNE 8.1 mph - N/A   Overcast
10:54 AM 34.0 °F 28.8 °F 33.1 °F 96% 30.39 in 1.8 mi North 5.8 mph - N/A   Overcast
11:07 AM 33.8 °F 29.6 °F 33.8 °F 100% 30.37 in 2.0 mi North 4.6 mph - N/A   Overcast
12:01 PM 35.6 °F 29.9 °F 33.8 °F 93% 30.34 in 3.0 mi NE 6.9 mph - N/A   Overcast
1:47 PM 35.6 °F 30.7 °F 33.8 °F 93% 30.29 in 6.0 mi NNE 5.8 mph - N/A   Overcast
2:54 PM 36.0 °F 29.6 °F 34.0 °F 93% 30.29 in 2.5 mi NE 8.1 mph - N/A   Overcast
3:41 PM 35.6 °F 30.7 °F 33.8 °F 93% 30.27 in 1.5 mi NNE 5.8 mph - 0.00 in   Overcast
3:54 PM 36.0 °F 32.1 °F 34.0 °F 93% 30.28 in 1.5 mi NE 4.6 mph - 0.01 in Rain Light Rain
4:09 PM 35.6 °F 30.7 °F 33.8 °F 93% 30.27 in 3.0 mi NNE 5.8 mph - 0.02 in Rain Light Rain
4:54 PM 35.1 °F 29.3 °F 34.0 °F 96% 30.27 in 4.0 mi NNE 6.9 mph - 0.08 in Rain Light Rain
5:54 PM 35.1 °F 29.3 °F 34.0 °F 96% 30.25 in 5.0 mi NE 6.9 mph - 0.05 in Rain Light Rain
6:54 PM 35.1 °F 29.3 °F 34.0 °F 96% 30.22 in 4.0 mi NNE 6.9 mph - 0.09 in Rain Rain
7:54 PM 36.0 °F 28.0 °F 35.1 °F 97% 30.19 in 5.0 mi NNE 11.5 mph - 0.07 in Rain Light Rain
8:12 PM 35.6 °F 29.2 °F 35.6 °F 100% 30.18 in 4.0 mi NNE 8.1 mph - 0.02 in Rain Rain
8:54 PM 37.0 °F 30.4 °F 36.0 °F 96% 30.16 in 4.0 mi NNE 9.2 mph - 0.13 in Rain Rain
9:04 PM 37.4 °F 30.3 °F 35.6 °F 93% 30.14 in 3.0 mi NNE 10.4 mph - 0.03 in Rain Rain
9:21 PM 37.4 °F 29.8 °F 35.6 °F 93% 30.13 in 4.0 mi NNE 11.5 mph - 0.08 in Rain Rain
9:29 PM 37.4 °F 31.4 °F 37.4 °F 100% 30.13 in 4.0 mi NE 8.1 mph - 0.10 in Rain Rain
9:39 PM 37.4 °F 30.8 °F 35.6 °F 93% 30.11 in 4.0 mi NNE 9.2 mph - 0.13 in Rain Rain
10:43 PM 37.4 °F 30.3 °F 37.4 °F 100% 30.05 in 4.0 mi NNE 10.4 mph - 0.09 in Rain Rain
10:54 PM 37.9 °F 31.5 °F 37.0 °F 97% 30.06 in 3.0 mi NNE 9.2 mph - 0.12 in Rain Rain
11:54 PM 39.0 °F 31.4 °F 37.9 °F 96% 29.99 in 4.0 mi NNE 12.7 mph - 0.15 in Rain Rain